Time,TemperatureF,DewpointF,PressureIn,WindDirection,WindDirectionDegrees,WindSpeedMPH,WindSpeedGustMPH,Humidity,HourlyPrecipIn,Conditions,Clouds,dailyrainin,SoftwareType,DateUTC
2013-03-27 00:03:00,52.0,41.0,30.20,NW,324,8.0,14.0,65,-99.99,,,-99.99,,2013-03-27 04:03:00,
2013-03-27 00:13:00,52.0,43.0,30.20,NW,317,6.0,10.0,70,-99.99,,,-99.99,,2013-03-27 04:13:00,
2013-03-27 00:23:00,52.0,43.0,30.20,NW,317,6.0,10.0,70,-99.99,,,-99.99,,2013-03-27 04:23:00,
2013-03-27 00:33:00,51.0,43.0,30.20,NW,316,6.0,9.0,73,-99.99,,,-99.99,,2013-03-27 04:33:00,
2013-03-27 00:43:00,51.0,44.0,30.20,NW,316,5.0,8.0,76,-99.99,,,-99.99,,2013-03-27 04:43:00,
2013-03-27 00:53:00,51.0,43.0,30.20,NW,325,7.0,12.0,74,-99.99,,,-99.99,,2013-03-27 04:53:00,
2013-03-27 01:03:00,51.0,43.0,30.20,NW,325,7.0,12.0,74,-99.99,,,-99.99,,2013-03-27 05:03:00,
2013-03-27 01:13:00,50.0,42.0,30.20,NNW,330,7.0,11.0,74,-99.99,,,-99.99,,2013-03-27 05:13:00,
2013-03-27 01:23:00,50.0,42.0,30.20,NNW,330,7.0,11.0,74,-99.99,,,-99.99,,2013-03-27 05:23:00,
2013-03-27 01:33:00,50.0,42.0,30.20,NNW,330,7.0,11.0,74,-99.99,,,-99.99,,2013-03-27 05:33:00,
2013-03-27 01:42:00,49.0,42.0,30.19,NNW,334,6.0,9.0,76,-99.99,,,-99.99,,2013-03-27 05:42:00,
2013-03-27 01:53:00,49.0,42.0,30.19,NNW,336,6.0,9.0,76,-99.99,,,-99.99,,2013-03-27 05:53:00,
2013-03-27 02:02:00,49.0,42.0,30.19,NNW,336,6.0,9.0,76,-99.99,,,-99.99,,2013-03-27 06:02:00,
2013-03-27 02:12:00,49.0,42.0,30.19,WNW,282,7.0,12.0,76,-99.99,,,-99.99,,2013-03-27 06:12:00,
2013-03-27 02:22:00,49.0,42.0,30.19,WNW,282,7.0,12.0,76,-99.99,,,-99.99,,2013-03-27 06:22:00,
2013-03-27 02:32:00,49.0,40.0,30.19,WNW,293,9.0,15.0,70,-99.99,,,-99.99,,2013-03-27 06:32:00,
2013-03-27 02:42:00,49.0,39.0,30.18,WNW,286,10.0,18.0,68,-99.99,,,-99.99,,2013-03-27 06:42:00,
2013-03-27 02:53:00,48.0,39.0,30.18,SW,234,8.0,15.0,70,-99.99,,,-99.99,,2013-03-27 06:53:00,
2013-03-27 03:02:00,48.0,39.0,30.18,SW,234,8.0,15.0,70,-99.99,,,-99.99,,2013-03-27 07:02:00,
2013-03-27 03:12:00,48.0,40.0,30.18,SW,224,8.0,13.0,73,-99.99,,,-99.99,,2013-03-27 07:12:00,
2013-03-27 03:22:00,48.0,40.0,30.18,SW,224,8.0,13.0,73,-99.99,,,-99.99,,2013-03-27 07:22:00,
2013-03-27 03:32:00,47.0,39.0,30.17,West,273,8.0,13.0,73,-99.99,,,-99.99,,2013-03-27 07:32:00,
2013-03-27 03:42:00,47.0,40.0,30.17,WNW,303,8.0,13.0,74,-99.99,,,-99.99,,2013-03-27 07:42:00,
2013-03-27 03:54:00,47.0,40.0,30.18,NW,320,7.0,13.0,74,-99.99,,,-99.99,,2013-03-27 07:54:00,
2013-03-27 04:02:00,47.0,40.0,30.18,NW,320,7.0,13.0,74,-99.99,,,-99.99,,2013-03-27 08:02:00,
2013-03-27 04:13:00,47.0,40.0,30.17,WNW,302,9.0,16.0,74,-99.99,,,-99.99,,2013-03-27 08:13:00,
2013-03-27 04:22:00,47.0,40.0,30.17,WNW,302,9.0,16.0,74,-99.99,,,-99.99,,2013-03-27 08:22:00,
2013-03-27 04:32:00,47.0,39.0,30.16,NW,317,10.0,17.0,72,-99.99,,,-99.99,,2013-03-27 08:32:00,
2013-03-27 04:43:00,47.0,39.0,30.16,NW,304,8.0,13.0,74,-99.99,,,-99.99,,2013-03-27 08:43:00,
2013-03-27 04:52:00,46.0,39.0,30.16,SW,229,8.0,11.0,77,-99.99,,,-99.99,,2013-03-27 08:52:00,
2013-03-27 05:02:00,46.0,39.0,30.16,SW,229,8.0,11.0,77,-99.99,,,-99.99,,2013-03-27 09:02:00,
2013-03-27 05:12:00,46.0,39.0,30.17,WSW,248,7.0,10.0,77,-99.99,,,-99.99,,2013-03-27 09:12:00,
2013-03-27 05:22:00,46.0,39.0,30.17,WSW,248,7.0,10.0,77,-99.99,,,-99.99,,2013-03-27 09:22:00,
2013-03-27 05:33:00,45.0,39.0,30.16,SSW,197,7.0,10.0,76,-99.99,,,-99.99,,2013-03-27 09:33:00,
2013-03-27 05:42:00,45.0,39.0,30.17,SW,227,7.0,10.0,77,-99.99,,,-99.99,,2013-03-27 09:42:00,
2013-03-27 05:52:00,45.0,39.0,30.17,West,271,7.0,10.0,77,-99.99,,,-99.99,,2013-03-27 09:52:00,
2013-03-27 06:03:00,45.0,39.0,30.17,West,271,7.0,10.0,77,-99.99,,,-99.99,,2013-03-27 10:03:00,
2013-03-27 06:13:00,45.0,39.0,30.17,WNW,297,8.0,11.0,76,-99.99,,,-99.99,,2013-03-27 10:13:00,
2013-03-27 06:23:00,45.0,39.0,30.17,WNW,297,8.0,11.0,76,-99.99,,,-99.99,,2013-03-27 10:23:00,
2013-03-27 06:32:00,46.0,39.0,30.17,WNW,286,8.0,10.0,76,-99.99,,,-99.99,,2013-03-27 10:32:00,
2013-03-27 06:42:00,46.0,39.0,30.18,WNW,297,8.0,12.0,75,-99.99,,,-99.99,,2013-03-27 10:42:00,
2013-03-27 06:53:00,46.0,38.0,30.18,West,271,7.0,11.0,74,-99.99,,,-99.99,,2013-03-27 10:53:00,
2013-03-27 07:03:00,46.0,38.0,30.18,West,271,7.0,11.0,74,-99.99,,,-99.99,,2013-03-27 11:03:00,
2013-03-27 07:12:00,46.0,38.0,30.18,WNW,294,7.0,10.0,75,-99.99,,,-99.99,,2013-03-27 11:12:00,
2013-03-27 07:22:00,46.0,38.0,30.18,WNW,294,7.0,10.0,75,-99.99,,,-99.99,,2013-03-27 11:22:00,
2013-03-27 07:32:00,46.0,38.0,30.18,WNW,294,7.0,10.0,75,-99.99,,,-99.99,,2013-03-27 11:32:00,
2013-03-27 07:42:00,46.0,39.0,30.19,NNW,334,6.0,8.0,78,-99.99,,,-99.99,,2013-03-27 11:42:00,
2013-03-27 07:53:00,46.0,39.0,30.20,NW,319,6.0,9.0,77,-99.99,,,-99.99,,2013-03-27 11:53:00,
2013-03-27 08:02:00,46.0,39.0,30.20,NW,319,6.0,9.0,77,-99.99,,,-99.99,,2013-03-27 12:02:00,
2013-03-27 08:12:00,46.0,39.0,30.21,NNW,331,7.0,9.0,74,-99.99,,,-99.99,,2013-03-27 12:12:00,
2013-03-27 08:23:00,46.0,39.0,30.21,NNW,331,7.0,9.0,74,-99.99,,,-99.99,,2013-03-27 12:23:00,
2013-03-27 08:32:00,47.0,39.0,30.21,WNW,301,7.0,11.0,71,-99.99,,,-99.99,,2013-03-27 12:32:00,
2013-03-27 08:43:00,48.0,37.0,30.22,NW,316,10.0,14.0,65,-99.99,,,-99.99,,2013-03-27 12:43:00,
2013-03-27 08:52:00,49.0,37.0,30.22,NW,312,10.0,15.0,61,-99.99,,,-99.99,,2013-03-27 12:52:00,
2013-03-27 09:02:00,49.0,37.0,30.22,NW,312,10.0,15.0,61,-99.99,,,-99.99,,2013-03-27 13:02:00,
2013-03-27 09:12:00,51.0,37.0,30.22,NNW,336,10.0,14.0,59,-99.99,,,-99.99,,2013-03-27 13:12:00,
2013-03-27 09:23:00,51.0,37.0,30.22,NNW,336,10.0,14.0,59,-99.99,,,-99.99,,2013-03-27 13:23:00,
2013-03-27 09:32:00,52.0,37.0,30.23,WNW,303,12.0,17.0,56,-99.99,,,-99.99,,2013-03-27 13:32:00,
2013-03-27 09:42:00,53.0,37.0,30.23,NW,326,12.0,19.0,55,-99.99,,,-99.99,,2013-03-27 13:42:00,
2013-03-27 09:53:00,54.0,38.0,30.23,NW,322,13.0,17.0,54,-99.99,,,-99.99,,2013-03-27 13:53:00,
2013-03-27 10:02:00,54.0,38.0,30.23,NW,322,13.0,17.0,54,-99.99,,,-99.99,,2013-03-27 14:02:00,
2013-03-27 10:12:00,55.0,39.0,30.24,NW,312,12.0,18.0,55,-99.99,,,-99.99,,2013-03-27 14:12:00,
2013-03-27 10:22:00,55.0,39.0,30.24,NW,312,12.0,18.0,55,-99.99,,,-99.99,,2013-03-27 14:22:00,
2013-03-27 10:32:00,55.0,39.0,30.24,NW,312,12.0,18.0,55,-99.99,,,-99.99,,2013-03-27 14:32:00,
2013-03-27 10:42:00,57.0,41.0,30.24,WSW,250,14.0,21.0,55,-99.99,,,-99.99,,2013-03-27 14:42:00,
2013-03-27 10:52:00,58.0,42.0,30.24,West,270,13.0,20.0,55,-99.99,,,-99.99,,2013-03-27 14:52:00,
2013-03-27 11:03:00,58.0,42.0,30.24,West,270,13.0,20.0,55,-99.99,,,-99.99,,2013-03-27 15:03:00,
2013-03-27 11:12:00,58.0,42.0,30.24,West,271,13.0,18.0,55,-99.99,,,-99.99,,2013-03-27 15:12:00,
2013-03-27 11:23:00,58.0,42.0,30.24,West,271,13.0,18.0,55,-99.99,,,-99.99,,2013-03-27 15:23:00,
2013-03-27 11:33:00,59.0,43.0,30.25,SSE,159,12.0,18.0,54,-99.99,,,-99.99,,2013-03-27 15:33:00,
2013-03-27 11:43:00,60.0,43.0,30.24,WNW,295,10.0,18.0,53,-99.99,,,-99.99,,2013-03-27 15:43:00,
2013-03-27 11:53:00,61.0,43.0,30.24,SW,219,10.0,16.0,52,-99.99,,,-99.99,,2013-03-27 15:53:00,
2013-03-27 12:03:00,61.0,43.0,30.24,SW,219,10.0,16.0,52,-99.99,,,-99.99,,2013-03-27 16:03:00,
2013-03-27 12:13:00,61.0,44.0,30.24,SW,236,10.0,18.0,52,-99.99,,,-99.99,,2013-03-27 16:13:00,
2013-03-27 12:23:00,61.0,44.0,30.24,SW,236,10.0,18.0,52,-99.99,,,-99.99,,2013-03-27 16:23:00,
2013-03-27 12:33:00,62.0,43.0,30.24,West,279,10.0,16.0,50,-99.99,,,-99.99,,2013-03-27 16:33:00,
2013-03-27 12:42:00,62.0,43.0,30.24,SW,233,10.0,17.0,50,-99.99,,,-99.99,,2013-03-27 16:42:00,
2013-03-27 12:52:00,62.0,43.0,30.23,NW,319,10.0,19.0,49,-99.99,,,-99.99,,2013-03-27 16:52:00,
2013-03-27 13:03:00,62.0,43.0,30.23,NW,319,10.0,19.0,49,-99.99,,,-99.99,,2013-03-27 17:03:00,
2013-03-27 13:12:00,63.0,43.0,30.23,NW,318,10.0,17.0,47,-99.99,,,-99.99,,2013-03-27 17:12:00,
2013-03-27 13:22:00,63.0,43.0,30.23,NW,318,10.0,17.0,47,-99.99,,,-99.99,,2013-03-27 17:22:00,
2013-03-27 13:32:00,63.0,43.0,30.23,NW,318,10.0,17.0,47,-99.99,,,-99.99,,2013-03-27 17:32:00,
2013-03-27 13:44:00,63.0,42.0,30.22,NW,317,9.0,16.0,46,-99.99,,,-99.99,,2013-03-27 17:44:00,
2013-03-27 13:52:00,64.0,42.0,30.21,WNW,290,9.0,16.0,45,-99.99,,,-99.99,,2013-03-27 17:52:00,
2013-03-27 14:03:00,64.0,42.0,30.21,WNW,290,9.0,16.0,45,-99.99,,,-99.99,,2013-03-27 18:03:00,
2013-03-27 14:12:00,64.0,42.0,30.21,NW,315,9.0,15.0,44,-99.99,,,-99.99,,2013-03-27 18:12:00,
2013-03-27 14:23:00,64.0,42.0,30.21,NW,315,9.0,15.0,44,-99.99,,,-99.99,,2013-03-27 18:23:00,
2013-03-27 14:32:00,64.0,41.0,30.20,WNW,302,8.0,15.0,43,-99.99,,,-99.99,,2013-03-27 18:32:00,
2013-03-27 14:42:00,65.0,41.0,30.20,WNW,297,8.0,15.0,41,-99.99,,,-99.99,,2013-03-27 18:42:00,
2013-03-27 14:53:00,65.0,41.0,30.19,WNW,302,8.0,16.0,41,-99.99,,,-99.99,,2013-03-27 18:53:00,
2013-03-27 15:03:00,65.0,41.0,30.19,WNW,302,8.0,16.0,41,-99.99,,,-99.99,,2013-03-27 19:03:00,
2013-03-27 15:12:00,65.0,40.0,30.19,WNW,287,7.0,13.0,40,-99.99,,,-99.99,,2013-03-27 19:12:00,
2013-03-27 15:22:00,65.0,40.0,30.19,WNW,287,7.0,13.0,40,-99.99,,,-99.99,,2013-03-27 19:22:00,
2013-03-27 15:32:00,65.0,41.0,30.18,WSW,237,8.0,14.0,40,-99.99,,,-99.99,,2013-03-27 19:32:00,
2013-03-27 15:42:00,66.0,42.0,30.18,NW,313,9.0,15.0,41,-99.99,,,-99.99,,2013-03-27 19:42:00,
2013-03-27 15:52:00,66.0,41.0,30.17,WNW,296,8.0,15.0,41,-99.99,,,-99.99,,2013-03-27 19:52:00,
2013-03-27 16:03:00,66.0,41.0,30.17,WNW,296,8.0,15.0,41,-99.99,,,-99.99,,2013-03-27 20:03:00,
2013-03-27 16:12:00,66.0,41.0,30.17,South,190,7.0,12.0,40,-99.99,,,-99.99,,2013-03-27 20:12:00,
2013-03-27 16:22:00,66.0,41.0,30.17,South,190,7.0,12.0,40,-99.99,,,-99.99,,2013-03-27 20:22:00,
2013-03-27 16:32:00,66.0,41.0,30.17,South,190,7.0,12.0,40,-99.99,,,-99.99,,2013-03-27 20:32:00,
2013-03-27 16:43:00,66.0,43.0,30.17,WNW,295,7.0,12.0,42,-99.99,,,-99.99,,2013-03-27 20:43:00,
2013-03-27 16:52:00,67.0,42.0,30.17,West,272,6.0,12.0,40,-99.99,,,-99.99,,2013-03-27 20:52:00,
2013-03-27 17:02:00,67.0,42.0,30.17,West,272,6.0,12.0,40,-99.99,,,-99.99,,2013-03-27 21:02:00,
2013-03-27 17:12:00,66.0,42.0,30.16,WNW,289,6.0,10.0,40,-99.99,,,-99.99,,2013-03-27 21:12:00,
2013-03-27 17:23:00,66.0,42.0,30.16,WNW,289,6.0,10.0,40,-99.99,,,-99.99,,2013-03-27 21:23:00,
2013-03-27 17:32:00,66.0,41.0,30.16,WNW,300,7.0,11.0,40,-99.99,,,-99.99,,2013-03-27 21:32:00,
2013-03-27 17:43:00,67.0,42.0,30.16,NW,316,6.0,11.0,40,-99.99,,,-99.99,,2013-03-27 21:43:00,
2013-03-27 17:52:00,66.0,41.0,30.16,WSW,256,6.0,13.0,39,-99.99,,,-99.99,,2013-03-27 21:52:00,
2013-03-27 18:03:00,66.0,41.0,30.16,WSW,256,6.0,13.0,39,-99.99,,,-99.99,,2013-03-27 22:03:00,
2013-03-27 18:12:00,66.0,41.0,30.17,WSW,253,6.0,11.0,40,-99.99,,,-99.99,,2013-03-27 22:12:00,
2013-03-27 18:23:00,66.0,41.0,30.17,WSW,253,6.0,11.0,40,-99.99,,,-99.99,,2013-03-27 22:23:00,
2013-03-27 18:33:00,66.0,41.0,30.17,WNW,296,6.0,12.0,39,-99.99,,,-99.99,,2013-03-27 22:33:00,
2013-03-27 18:42:00,66.0,41.0,30.17,NNW,327,6.0,9.0,39,-99.99,,,-99.99,,2013-03-27 22:42:00,
2013-03-27 18:53:00,66.0,40.0,30.17,WSW,245,4.0,7.0,38,-99.99,,,-99.99,,2013-03-27 22:53:00,
2013-03-27 19:02:00,66.0,40.0,30.17,WSW,245,4.0,7.0,38,-99.99,,,-99.99,,2013-03-27 23:02:00,
2013-03-27 19:12:00,65.0,43.0,30.18,SSE,152,5.0,8.0,44,-99.99,,,-99.99,,2013-03-27 23:12:00,
2013-03-27 19:22:00,65.0,43.0,30.18,SSE,152,5.0,8.0,44,-99.99,,,-99.99,,2013-03-27 23:22:00,
2013-03-27 19:32:00,65.0,43.0,30.18,SSE,152,5.0,8.0,44,-99.99,,,-99.99,,2013-03-27 23:32:00,
2013-03-27 19:42:00,62.0,46.0,30.18,NE,38,7.0,9.0,54,-99.99,,,-99.99,,2013-03-27 23:42:00,
2013-03-27 19:52:00,61.0,47.0,30.18,NE,36,7.0,10.0,59,-99.99,,,-99.99,,2013-03-27 23:52:00,
2013-03-27 20:02:00,61.0,47.0,30.18,NE,36,7.0,10.0,59,-99.99,,,-99.99,,2013-03-28 00:02:00,
2013-03-27 20:12:00,59.0,46.0,30.19,NE,42,6.0,11.0,61,-99.99,,,-99.99,,2013-03-28 00:12:00,
2013-03-27 20:22:00,59.0,46.0,30.19,NE,42,6.0,11.0,61,-99.99,,,-99.99,,2013-03-28 00:22:00,
2013-03-27 20:33:00,58.0,47.0,30.19,NE,36,6.0,9.0,65,-99.99,,,-99.99,,2013-03-28 00:33:00,
2013-03-27 20:43:00,58.0,46.0,30.19,NE,36,7.0,10.0,65,-99.99,,,-99.99,,2013-03-28 00:43:00,
2013-03-27 20:52:00,57.0,47.0,30.20,NE,41,6.0,7.0,67,-99.99,,,-99.99,,2013-03-28 00:52:00,
2013-03-27 21:02:00,57.0,47.0,30.20,NE,41,6.0,7.0,67,-99.99,,,-99.99,,2013-03-28 01:02:00,
2013-03-27 21:12:00,57.0,47.0,30.20,NE,34,6.0,8.0,69,-99.99,,,-99.99,,2013-03-28 01:12:00,
2013-03-27 21:22:00,57.0,47.0,30.20,NE,34,6.0,8.0,69,-99.99,,,-99.99,,2013-03-28 01:22:00,
2013-03-27 21:32:00,56.0,47.0,30.20,NE,35,5.0,7.0,71,-99.99,,,-99.99,,2013-03-28 01:32:00,
2013-03-27 21:42:00,56.0,47.0,30.20,NE,39,5.0,7.0,72,-99.99,,,-99.99,,2013-03-28 01:42:00,
2013-03-27 21:53:00,55.0,47.0,30.21,NE,38,5.0,7.0,74,-99.99,,,-99.99,,2013-03-28 01:53:00,
2013-03-27 22:03:00,55.0,47.0,30.21,NE,38,5.0,7.0,74,-99.99,,,-99.99,,2013-03-28 02:03:00,
2013-03-27 22:12:00,55.0,48.0,30.21,NE,47,4.0,6.0,76,-99.99,,,-99.99,,2013-03-28 02:12:00,
2013-03-27 22:22:00,55.0,48.0,30.21,NE,47,4.0,6.0,76,-99.99,,,-99.99,,2013-03-28 02:22:00,
2013-03-27 22:32:00,54.0,47.0,30.21,NE,44,4.0,6.0,76,-99.99,,,-99.99,,2013-03-28 02:32:00,
2013-03-27 22:42:00,54.0,47.0,30.21,NE,44,4.0,6.0,76,-99.99,,,-99.99,,2013-03-28 02:42:00,
2013-03-27 22:52:00,54.0,47.0,30.21,NE,44,4.0,6.0,76,-99.99,,,-99.99,,2013-03-28 02:52:00,
2013-03-27 23:02:00,54.0,48.0,30.22,NNE,17,4.0,5.0,79,-99.99,,,-99.99,,2013-03-28 03:02:00,
2013-03-27 23:12:00,54.0,49.0,30.22,ENE,68,3.0,5.0,85,-99.99,,,-99.99,,2013-03-28 03:12:00,
2013-03-27 23:22:00,54.0,49.0,30.22,ENE,68,3.0,5.0,85,-99.99,,,-99.99,,2013-03-28 03:22:00,
2013-03-27 23:33:00,53.0,50.0,30.22,WSW,248,3.0,4.0,89,-99.99,,,-99.99,,2013-03-28 03:33:00,
2013-03-27 23:43:00,52.0,50.0,30.22,West,260,4.0,5.0,90,-99.99,,,-99.99,,2013-03-28 03:43:00,
2013-03-27 23:53:00,52.0,49.0,30.22,WNW,299,4.0,5.0,90,-99.99,,,-99.99,,2013-03-28 03:53:00,